Temperature
9 9 9 9 9 9 9 9 9 8 8 8 8 8 8 8 8 8 8 8 8 8 8 8 8 8 8 7 7 7 7 7 7 7 7 8 8 7 7 7 7 7 7
9 9 9 8 8 8 8 8 8 8 8 8 8 8 8 8 8 8 8 8 7 7 7 7 7 7 7 7 7 7 6 6 6 6 6 6 6 7 7 7 7 7 7
8 8 8 8 8 8 8 8 8 8 7 7 7 7 7 7 7 7 7 7 7 7 7 7 6 6 6 6 6 6 6 6 6 5 5 5 5 5 6 6 6 6 6
8 8 8 8 8 8 8 8 7 7 7 7 7 7 7 7 7 7 7 7 6 6 6 6 6 6 6 6 5 5 5 5 5 5 5 5 5 4 5 5 5 5 5
8 8 8 8 7 7 7 7 7 7 6 6 6 6 6 6 6 6 6 6 6 6 5 5 5 5 5 5 5 5 5 4 4 4 4 4 4 4 4 4 4 4 5
7 7 7 7 7 7 7 6 6 6 6 6 6 6 5 5 5 5 5 5 5 5 5 5 5 5 5 4 4 4 4 4 4 4 4 4 3 4 3 3 3 4 4
7 7 6 6 6 6 6 6 6 6 5 5 5 5 5 5 5 5 5 5 5 5 5 4 4 4 4 4 4 4 4 3 3 3 3 3 3 3 3 3 3 3 3
6 6 6 6 6 6 6 6 5 5 5 5 5 5 4 4 4 4 4 4 4 4 4 4 4 4 4 3 3 3 3 3 3 3 3 3 3 3 2 2 2 2 2
5 5 5 5 5 5 5 5 5 5 5 4 4 4 4 4 4 4 3 3 3 3 3 3 3 3 3 3 2 2 2 2 2 2 2 2 2 2 2 2 2 2 1
5 5 5 5 5 5 5 4 4 4 4 4 4 4 4 3 3 3 3 3 3 3 3 3 3 2 2 2 2 2 2 2 2 2 2 2 2 2 2 2 1 1 1
4 4 4 4 4 4 4 4 4 3 3 3 3 3 3 3 3 2 2 2 2 2 2 2 2 2 2 1 1 1 1 1 1 1 1 1 1 1 1 1 1 1 1
4 4 4 4 3 3 3 3 3 3 3 3 3 2 2 2 2 2 2 2 2 2 2 2 2 1 1 1 1 1 1 1 1 1 1 1 1 1 1 1 1 0 0
3 3 3 3 3 3 3 3 3 2 2 2 2 2 2 2 2 2 2 1 1 1 1 1 1 1 0 0 0 0 0 0 0 1 0 0 0 0 0 0 0 0 -0
3 3 3 3 3 3 3 3 2 2 2 2 1 2 1 1 1 1 1 1 1 1 1 0 0 0 -0 -0 -0 -0 -0 -0 0 0 0 -0 -0 -0 -0 -0 -0 -0 -1
2 2 2 2 2 2 2 2 2 2 2 1 1 1 1 1 1 1 0 0 0 0 -0 -0 -0 -0 -0 -1 -1 -1 -0 -0 -0 -0 -0 -0 -0 -0 -1 -1 -1 -1 -1
2 2 2 2 2 2 2 1 1 1 1 1 1 1 0 0 0 0 -0 -0 -0 -1 -1 -1 -1 -1 -1 -1 -1 -1 -1 -1 -1 -1 -1 -1 -1 -1 -1 -1 -1 -1 -1
2 2 2 1 1 1 1 1 1 1 0 0 0 0 -0 -0 -0 -0 -1 -1 -1 -1 -1 -1 -1 -1 -1 -1 -1 -1 -1 -1 -1 -1 -1 -1 -1 -1 -1 -1 -1 -1 -1
2 1 1 1 1 1 1 1 0 0 0 -0 -0 -0 -1 -1 -1 -1 -1 -1 -1 -2 -1 -1 -1 -2 -2 -2 -2 -2 -2 -2 -2 -1 -1 -1 -1 -2 -2 -2 -2 -2 -1
1 1 1 1 0 0 0 0 -0 -0 -1 -1 -1 -1 -1 -1 -1 -1 -1 -2 -2 -2 -2 -2 -2 -2 -2 -2 -2 -2 -2 -2 -2 -2 -2 -2 -2 -2 -2 -2 -2 -2 -2
1 1 0 0 -0 -0 -0 -0 -1 -1 -1 -1 -1 -1 -2 -2 -2 -2 -2 -2 -2 -2 -2 -2 -2 -2 -2 -2 -2 -3 -3 -3 -3 -2 -2 -2 -2 -2 -2 -2 -2 -2 -2
0 0 -0 -0 -0 -1 -1 -1 -1 -1 -1 -2 -2 -2 -2 -2 -2 -2 -2 -2 -3 -3 -3 -3 -3 -3 -3 -3 -3 -3 -3 -3 -3 -3 -3 -3 -3 -3 -3 -3 -3 -3 -3
-0 -0 -1 -1 -1 -1 -1 -1 -2 -2 -2 -2 -2 -2 -2 -2 -3 -2 -3 -3 -3 -3 -3 -3 -3 -3 -3 -3 -3 -3 -3 -3 -3 -3 -3 -3 -3 -3 -3 -3 -3 -3 -3
-1 -1 -1 -1 -1 -2 -2 -2 -2 -2 -2 -2 -2 -2 -3 -3 -3 -3 -3 -3 -3 -3 -3 -4 -4 -4 -3 -4 -4 -4 -3 -3 -3 -3 -3 -3 -3 -3 -3 -3 -3 -4 -3
-1 -2 -2 -2 -2 -2 -2 -2 -2 -2 -3 -3 -3 -3 -3 -3 -3 -3 -3 -3 -3 -4 -4 -4 -4 -4 -4 -4 -4 -4 -4 -4 -4 -4 -4 -3 -3 -4 -4 -4 -4 -4 -4
-2 -2 -2 -2 -2 -3 -3 -3 -3 -3 -3 -3 -3 -3 -3 -3 -4 -3 -3 -4 -4 -4 -4 -4 -4 -4 -4 -4 -4 -4 -4 -4 -4 -4 -4 -4 -4 -4 -4 -4 -4 -4 -4
-2 -2 -3 -3 -3 -3 -3 -3 -3 -3 -3 -3 -3 -4 -4 -4 -4 -4 -4 -4 -4 -4 -4 -4 -4 -4 -4 -4 -4 -4 -4 -4 -4 -4 -4 -4 -4 -4 -4 -4 -4 -4 -5
Wind_Speed
4 3 3 4 5 4 4 4 4 3 3 3 3 2 2 1 1 1 2 3 2 2 2 1 1 1 2 2 2 1 0 1 1 1 2 3 3 2 2 1 1 2 2
2 3 3 3 5 5 5 4 4 3 3 3 3 2 2 2 1 1 2 2 2 2 1 2 1 1 1 1 2 1 1 0 0 1 1 2 3 3 2 2 2 2 2
5 4 3 3 4 5 5 4 4 3 3 3 3 3 2 1 1 0 0 1 2 2 1 2 1 1 2 2 2 2 3 2 1 0 1 1 2 3 2 2 1 2 2
5 4 4 3 4 5 4 4 4 3 3 3 4 4 3 2 2 2 1 0 1 1 1 2 1 1 1 2 2 2 2 2 2 1 1 2 2 1 3 3 2 3 3
4 4 4 4 3 3 3 3 3 3 3 3 4 4 3 2 1 1 1 1 1 1 1 1 1 2 2 2 2 2 2 3 3 2 1 1 1 2 2 4 3 3 3
3 2 2 2 1 2 3 3 4 3 3 3 3 4 4 3 2 2 2 2 1 1 1 1 2 2 2 2 3 3 4 4 3 3 2 2 2 2 2 3 4 4 4
3 2 2 2 2 2 3 3 3 3 3 3 3 3 3 3 3 3 3 2 2 2 3 2 2 2 2 2 2 3 4 4 4 4 4 3 3 2 2 3 3 4 4
2 2 2 2 2 3 3 3 3 2 2 3 3 3 3 2 2 2 2 3 3 3 3 2 2 2 2 2 2 3 4 4 4 4 4 3 4 3 3 3 2 3 3
2 2 1 1 2 2 3 3 3 2 2 3 2 2 3 3 2 2 2 2 2 2 2 2 2 2 2 3 3 3 4 3 4 4 4 3 3 3 3 3 3 3 4
1 1 1 2 2 2 2 2 2 3 2 2 2 1 2 2 2 2 3 3 2 2 2 2 3 3 2 2 3 3 3 4 4 3 4 3 3 3 3 3 3 3 4
2 2 2 2 1 1 1 2 2 1 1 2 2 1 2 2 2 2 3 3 2 3 3 3 3 3 3 3 3 4 4 4 4 4 4 4 3 3 3 2 2 3 3
2 2 2 1 1 1 1 2 2 2 2 2 1 2 2 1 2 2 2 2 3 3 3 3 3 3 3 3 4 4 4 4 5 4 4 5 4 3 3 3 3 3 3
3 2 1 1 1 1 1 2 2 2 2 2 2 2 1 2 2 3 3 2 3 3 2 3 3 4 4 4 4 4 4 5 5 5 5 5 4 4 4 4 4 3 3
4 3 3 2 2 2 1 2 2 2 1 1 2 2 3 3 3 3 3 3 3 3 3 3 4 4 4 4 4 4 4 4 5 5 5 5 5 5 5 4 4 4 3
4 4 4 3 2 1 1 1 1 1 1 1 2 3 3 3 3 3 3 3 4 4 4 4 4 4 4 4 5 5 5 4 5 5 5 5 6 7 5 4 4 4 3
5 5 4 3 3 2 2 1 1 2 1 2 2 2 2 2 3 3 3 3 3 3 3 4 4 4 4 6 7 5 4 4 5 5 4 5 5 6 7 7 6 5 4
6 5 5 4 3 3 3 2 2 2 2 2 2 3 3 3 3 3 3 3 3 3 3 4 4 5 6 7 7 7 4 4 5 4 4 3 4 5 4 5 6 6 7
5 4 4 3 2 2 2 2 1 1 2 2 3 3 3 3 3 3 3 3 3 3 3 4 4 4 5 7 7 6 4 3 4 5 4 4 4 4 4 3 3 3 4
4 4 3 3 2 2 2 1 1 2 2 3 3 3 3 4 4 4 4 3 3 3 3 3 4 4 5 6 6 6 3 3 4 4 4 4 4 5 5 3 3 3 3
2 2 1 1 1 2 1 1 2 2 3 4 4 3 3 4 4 4 4 3 3 4 3 3 4 4 4 6 6 5 3 3 3 3 3 5 5 5 5 3 3 3 3
2 1 1 1 2 1 1 1 2 3 4 4 3 3 3 4 4 4 3 3 3 3 3 4 4 4 4 5 6 5 3 3 3 3 3 3 5 5 5 4 3 4 3
2 1 1 2 2 1 1 2 3 4 3 3 3 3 3 3 3 3 3 3 3 3 3 3 3 3 3 4 5 6 5 4 3 3 3 3 5 5 5 3 3 3 2
2 2 1 2 2 2 2 3 4 3 2 2 3 3 3 3 3 3 3 3 3 3 2 2 2 2 2 3 5 5 5 4 3 3 3 3 3 3 2 3 3 2 1
2 2 1 2 3 3 2 3 3 2 2 3 3 3 2 2 2 2 2 2 2 2 2 2 2 2 2 2 2 2 2 3 2 2 2 2 1 1 2 2 1 1 1
2 2 2 2 3 3 3 3 3 2 2 3 3 3 2 2 2 2 2 2 3 3 3 3 3 3 3 3 4 2 2 2 2 2 1 1 1 1 1 1 1 1 1
2 2 2 3 3 3 4 3 3 2 2 2 2 2 2 1 1 1 1 2 2 2 3 3 3 3 4 4 4 4 3 2 1 2 1 1 1 1 1 1 1 1 1
Wind_Direction
215 182 167 161 150 149 148 151 149 148 142 137 145 145 159 156 152 113 122 128 129 128 116 105 110 128 173 198 196 190 175 301 341 350 321 311 297 269 253 255 265 281 283
187 161 170 170 168 166 161 153 153 155 161 156 158 154 154 157 165 102 88 117 130 135 127 118 162 184 179 200 206 185 180 269 123 126 357 319 320 315 305 279 256 274 302
196 184 171 174 164 168 170 168 167 161 162 147 128 113 91 79 90 0 183 113 143 148 143 139 153 195 187 210 218 195 185 199 241 185 165 197 251 307 304 308 297 293 285
197 187 182 186 186 188 174 160 161 157 159 150 153 156 168 188 213 211 203 170 135 165 177 168 169 196 200 214 227 206 201 183 215 262 252 230 203 231 298 308 313 306 293
190 190 196 198 193 178 165 157 149 152 157 158 165 170 186 199 189 173 191 218 213 193 205 200 191 208 213 220 227 218 210 200 204 215 242 262 266 233 242 282 300 308 291
186 186 185 143 137 134 140 148 146 156 159 164 173 181 188 184 171 193 214 234 232 225 232 221 216 222 221 225 234 223 215 214 210 211 214 222 227 236 235 261 284 291 292
164 160 153 150 151 147 151 149 148 168 172 173 183 189 192 185 193 206 212 225 232 237 241 240 235 236 230 230 233 229 228 218 215 216 223 228 235 230 236 249 275 285 292
162 165 174 174 173 173 168 156 161 178 183 184 198 194 187 186 201 209 212 221 228 233 229 228 242 251 242 243 236 240 242 225 221 228 226 231 237 229 233 230 250 288 288
186 181 183 191 191 185 187 179 176 189 202 200 197 192 187 183 198 216 215 222 236 240 226 225 236 244 240 242 240 242 251 237 226 227 227 235 242 240 235 232 224 232 272
222 229 227 221 216 209 196 180 179 197 210 202 201 206 194 196 202 206 217 225 235 239 229 234 235 242 240 237 234 242 250 242 233 223 222 235 243 248 242 235 238 236 244
236 251 261 248 226 213 183 184 191 187 186 187 189 190 204 204 209 222 233 232 231 228 228 232 235 237 240 238 239 243 243 242 238 231 227 238 237 237 243 239 238 242 240
259 254 248 243 219 217 206 197 202 198 201 192 191 208 215 213 224 241 249 240 238 239 234 231 237 240 241 238 237 244 244 240 235 233 233 240 238 236 240 235 235 238 239
265 262 259 250 243 243 228 220 215 213 212 191 192 210 227 235 242 251 258 254 244 248 244 236 239 243 243 241 243 240 238 242 237 229 231 235 229 238 241 239 235 239 249
256 250 247 248 249 251 240 231 237 223 218 204 205 219 233 240 246 251 257 256 245 243 241 239 240 240 244 243 244 242 239 246 243 234 232 232 227 231 233 235 230 234 241
261 245 242 244 241 251 266 243 244 241 221 214 228 243 253 258 256 256 259 257 251 247 239 238 244 242 245 243 242 238 237 241 243 239 235 234 238 243 240 240 226 225 233
256 248 246 239 235 239 247 249 249 249 223 223 241 255 256 258 260 258 260 262 259 255 243 237 239 245 251 260 264 256 235 238 239 237 238 240 241 247 255 259 253 240 232
256 247 240 233 236 238 232 232 238 237 229 237 252 256 255 256 259 261 261 258 258 254 252 244 240 245 252 261 265 266 247 230 236 230 234 245 249 257 247 258 264 263 259
251 248 237 242 249 246 245 235 250 253 245 249 260 257 253 258 258 249 250 253 250 250 252 251 242 245 256 266 265 265 249 232 237 228 223 227 234 243 246 242 251 253 262
245 239 230 232 237 235 221 204 262 272 274 269 268 267 258 258 257 248 246 246 244 253 252 254 248 248 260 269 266 258 231 238 245 237 229 229 230 248 257 250 249 263 272
252 234 233 226 237 253 203 194 257 268 270 272 272 273 267 260 254 247 246 245 239 247 255 263 255 248 251 266 264 252 223 235 240 236 234 243 252 253 256 239 230 251 268
261 239 213 234 250 256 202 232 261 264 270 276 277 282 281 266 259 249 241 241 245 251 258 265 265 252 253 263 258 250 231 226 229 231 232 239 254 259 265 267 242 251 266
264 243 231 272 278 252 209 244 262 272 280 275 277 280 283 272 260 247 241 237 235 243 250 256 266 255 253 262 258 255 254 242 218 226 230 235 251 260 270 277 272 279 289
262 262 237 281 299 283 227 242 267 277 283 278 278 281 283 277 262 245 246 238 226 224 235 242 261 271 256 257 268 264 257 251 240 225 235 243 256 271 274 277 285 287 250
261 266 260 278 295 298 279 259 271 277 272 272 280 281 275 280 278 258 242 231 221 223 234 243 253 263 265 253 244 240 243 248 245 221 219 241 279 308 305 304 306 295 249
267 259 254 263 279 291 291 287 282 275 267 270 278 282 276 281 281 272 252 244 237 227 228 234 235 243 253 261 268 253 228 214 204 174 159 164 184 228 266 296 307 299 274
263 261 267 267 281 288 290 293 289 269 253 267 276 274 271 276 273 271 309 301 275 273 265 261 263 261 265 271 270 269 258 245 193 149 160 197 213 218 233 253 273 283 271
Height
1481 1483 1483 1485 1486 1487 1488 1489 1490 1491 1492 1493 1494 1495 1496 1496 1497 1498 1498 1499 1500 1501 1502 1502 1503 1503 1503 1504 1504 1504 1504 1504 1504 1504 1503 1503 1503 1503 1503 1504 1504 1504 1504
1478 1479 1481 1482 1482 1483 1484 1485 1486 1488 1489 1489 1491 1492 1493 1493 1494 1494 1495 1496 1497 1498 1498 1499 1500 1500 1500 1500 1500 1500 1500 1500 1501 1501 1500 1499 1500 1499 1499 1500 1500 1500 1500
1475 1476 1477 1478 1479 1480 1481 1482 1483 1485 1486 1487 1488 1489 1490 1490 1491 1491 1492 1493 1494 1495 1495 1496 1496 1497 1497 1497 1497 1497 1497 1497 1497 1498 1499 1498 1496 1496 1495 1495 1496 1496 1496
1473 1473 1474 1475 1475 1476 1478 1479 1480 1482 1483 1484 1484 1485 1485 1486 1487 1488 1489 1489 1490 1491 1492 1492 1493 1493 1493 1493 1493 1493 1493 1494 1494 1494 1495 1496 1495 1495 1492 1492 1492 1492 1492
1470 1471 1472 1472 1473 1474 1475 1476 1477 1479 1480 1481 1482 1482 1483 1484 1484 1485 1486 1487 1487 1488 1488 1489 1490 1490 1489 1489 1489 1489 1490 1490 1490 1490 1491 1491 1491 1491 1490 1488 1488 1488 1488
1469 1470 1470 1471 1471 1472 1473 1474 1475 1476 1477 1478 1479 1480 1480 1481 1481 1482 1483 1484 1484 1484 1485 1486 1486 1486 1485 1485 1485 1485 1486 1486 1486 1486 1487 1487 1487 1487 1487 1485 1484 1483 1483
1467 1468 1468 1469 1469 1470 1471 1472 1472 1473 1474 1475 1476 1477 1477 1478 1478 1479 1480 1480 1481 1481 1481 1482 1482 1481 1481 1481 1481 1481 1482 1482 1482 1482 1483 1483 1484 1484 1483 1483 1481 1479 1478
1466 1467 1467 1467 1468 1468 1469 1470 1470 1471 1472 1472 1473 1474 1474 1475 1475 1476 1476 1477 1477 1477 1477 1478 1478 1477 1477 1477 1477 1477 1477 1477 1478 1478 1479 1479 1479 1479 1479 1479 1478 1476 1474
1466 1466 1466 1467 1467 1467 1467 1468 1468 1468 1469 1469 1470 1471 1471 1471 1472 1472 1473 1473 1473 1473 1473 1473 1473 1473 1473 1473 1473 1472 1472 1473 1473 1474 1474 1474 1475 1475 1475 1475 1475 1474 1471
1465 1465 1465 1465 1465 1466 1466 1466 1466 1466 1466 1466 1467 1467 1468 1468 1468 1469 1469 1469 1469 1469 1469 1469 1469 1469 1468 1468 1468 1468 1468 1468 1468 1469 1469 1469 1470 1470 1470 1470 1470 1470 1469
1464 1464 1464 1464 1464 1464 1464 1463 1463 1463 1463 1463 1464 1464 1464 1465 1465 1465 1465 1465 1465 1465 1465 1464 1464 1464 1464 1464 1463 1463 1463 1463 1464 1464 1464 1465 1465 1465 1465 1465 1465 1465 1465
1463 1463 1463 1462 1462 1461 1461 1461 1461 1461 1461 1461 1461 1461 1461 1461 1461 1461 1461 1461 1460 1460 1460 1460 1459 1459 1459 1459 1459 1459 1459 1459 1459 1459 1459 1460 1460 1460 1460 1460 1460 1460 1460
1461 1461 1460 1460 1459 1459 1459 1458 1458 1458 1458 1458 1458 1458 1457 1457 1457 1457 1456 1456 1456 1456 1455 1455 1454 1454 1454 1454 1454 1454 1454 1454 1454 1454 1455 1455 1455 1455 1455 1455 1455 1456 1456
1459 1458 1458 1457 1457 1457 1456 1456 1455 1455 1455 1455 1455 1454 1454 1454 1453 1453 1453 1452 1452 1451 1451 1450 1450 1450 1450 1450 1449 1449 1449 1449 1449 1450 1450 1450 1450 1450 1450 1451 1451 1451 1451
1456 1455 1455 1455 1454 1454 1454 1453 1453 1452 1452 1451 1451 1451 1450 1450 1450 1449 1448 1448 1447 1447 1446 1446 1446 1445 1445 1445 1445 1445 1445 1445 1445 1445 1445 1445 1446 1446 1446 1446 1447 1447 1447
1453 1453 1453 1452 1452 1452 1451 1451 1450 1449 1449 1448 1447 1447 1447 1446 1446 1445 1444 1443 1442 1442 1442 1442 1441 1441 1441 1441 1441 1441 1440 1440 1440 1440 1441 1441 1442 1442 1442 1443 1443 1444 1443
1451 1450 1450 1449 1449 1449 1449 1448 1447 1446 1446 1445 1444 1444 1443 1442 1442 1441 1440 1439 1438 1438 1438 1437 1437 1437 1436 1437 1437 1437 1436 1436 1436 1436 1437 1437 1437 1438 1438 1439 1439 1439 1439
1448 1448 1447 1447 1446 1446 1446 1445 1444 1443 1442 1442 1441 1440 1439 1438 1437 1437 1436 1435 1434 1434 1433 1433 1433 1432 1432 1432 1432 1433 1432 1432 1432 1432 1433 1433 1434 1434 1435 1435 1435 1435 1435
1445 1445 1444 1444 1443 1443 1442 1441 1441 1440 1439 1438 1437 1436 1435 1434 1433 1433 1432 1431 1430 1430 1429 1429 1428 1428 1428 1428 1429 1429 1428 1428 1428 1429 1429 1430 1430 1431 1431 1431 1431 1431 1431
1443 1442 1441 1441 1441 1440 1439 1438 1437 1437 1436 1435 1434 1433 1431 1430 1429 1429 1428 1427 1427 1426 1425 1425 1425 1424 1424 1424 1425 1425 1425 1425 1425 1425 1426 1426 1427 1427 1428 1428 1427 1427 1427
1440 1439 1439 1438 1438 1437 1436 1435 1434 1433 1433 1431 1430 1429 1428 1427 1426 1425 1424 1423 1422 1422 1421 1421 1421 1421 1421 1421 1421 1421 1422 1422 1421 1421 1422 1423 1423 1424 1424 1424 1424 1424 1423
1437 1436 1436 1435 1435 1434 1433 1432 1431 1430 1429 1428 1427 1425 1424 1423 1422 1421 1420 1419 1419 1418 1418 1418 1417 1418 1418 1418 1417 1418 1418 1419 1418 1418 1419 1419 1420 1421 1421 1421 1421 1421 1420
1434 1434 1433 1432 1431 1431 1430 1429 1428 1427 1425 1424 1423 1422 1421 1420 1419 1417 1416 1416 1416 1415 1415 1415 1414 1414 1415 1414 1415 1415 1415 1415 1416 1416 1416 1417 1417 1418 1418 1418 1418 1417 1417
1431 1431 1430 1429 1428 1428 1427 1426 1424 1423 1422 1421 1419 1419 1418 1416 1415 1414 1413 1413 1413 1412 1412 1412 1412 1411 1411 1412 1412 1412 1412 1413 1413 1413 1413 1414 1414 1414 1414 1415 1414 1414 1414
1429 1428 1427 1426 1425 1424 1423 1422 1421 1420 1419 1418 1417 1416 1414 1413 1412 1412 1411 1410 1410 1410 1410 1410 1409 1409 1409 1409 1409 1409 1410 1410 1410 1410 1410 1411 1411 1411 1411 1411 1411 1411 1411
1425 1425 1424 1423 1422 1421 1420 1419 1418 1417 1416 1415 1414 1413 1412 1411 1410 1409 1409 1408 1408 1408 1408 1408 1408 1407 1407 1407 1408 1408 1408 1408 1408 1408 1408 1408 1408 1408 1408 1408 1408 1409 1409